Volver al catálogo

PELICAN-1 3001

ActivoCienciaSSO
NORAD 58296·PAYLOAD·🇺🇸 United States

Lanzado Nov 11, 2023 desde Vandenberg Space Force Base

Loading…

Próximos Pases (próximas 24 horas)

TLE

ActualizadoSource: CelesTrak SupGP

Época: Sep 14, 2026, 20:44 UTC

1 58296C 23174AS  26257.86432870  .00037624  00000+0  34107-3 0  2573
2 58296  97.4000   3.5766 0001863  67.2647  66.4650 15.67999019    13

Sigue PELICAN-1 3001 en tiempo real con AllMySat

Download on the App Store